#timestamp,LO_Frequency,Hit,StdDev 
1557349215.4,286046995.4,N
1557349235.2,286046997.5,N
1557349255.0,286046995.8,N
1557349255.9,286046995.8,N
1557349275.8,286046997.3,N
1557349295.6,286046997.0,N
1557349315.4,286047000.2,N
1557349335.3,286046999.1,N
1557349355.1,286046999.4,N
1557349375.9,286046999.3,N
1557349395.7,286046998.4,N
1557349415.5,286046999.2,N
1557349435.4,286046998.9,N
1557349455.2,286047000.6,N
1557349475.0,286047001.1,N
1557349475.9,286047001.1,N
1557349495.8,286047001.2,N
1557349515.6,286046998.1,N
1557349535.5,286046998.3,N
1557349555.3,286047001.2,N
1557349575.1,286047000.5,N
1557349595.9,286047002.7,N
1557349615.7,286047001.2,N
1557349635.5,286047000.9,N
1557349655.4,286046997.0,N
1557349675.2,286046997.1,N
1557349695.1,286046996.0,N
1557349696.0,286046996.0,N
1557349715.8,286046997.5,N
1557349735.6,286046996.8,N
1557349755.5,286046997.9,N
1557349775.3,286046997.0,N
1557349795.1,286046999.0,N
1557349815.9,286046998.9,N
1557349835.7,286046996.5,N
1557349855.6,286046994.9,N
1557349875.4,286046995.1,N
1557349895.2,286046995.4,N
1557349915.1,286046996.9,N
1557349916.0,286046996.9,N
1557349935.8,286046997.0,N
1557349955.6,286046998.1,N
1557349975.5,286046998.5,N
1557349995.3,286046999.9,N
1557350015.2,286046999.2,N
1557350035.9,286046996.7,N
1557350055.7,286046999.4,N
1557350075.6,286046999.7,N
1557350095.4,286046999.0,N
1557350115.3,286047001.1,N
1557350135.1,286046996.5,N
1557350136.0,286046996.5,N
1557350155.8,286046994.9,N
1557350175.7,286046996.7,N
1557350195.5,286046996.5,N
1557350215.3,286046996.7,N
1557350235.2,286046999.5,N
1557350255.0,286046999.1,N
1557350255.9,286046999.1,N
1557350275.8,286047000.0,N
1557350295.6,286047002.6,N
1557350315.5,286047000.7,N
1557350335.3,286046998.7,N
1557350355.1,286047000.5,N
1557350375.9,286047000.7,N
1557350395.7,286046999.0,N
1557350415.6,286046998.1,N
1557350435.4,286046998.4,N
1557350455.2,286046998.2,N
1557350475.1,286046999.7,N
1557350476.0,286046999.7,N
1557350495.8,286047001.9,N
1557350515.6,286047004.3,N
1557350535.5,286047003.7,N
1557350555.3,286047004.3,N
1557350575.2,286046999.7,N
1557350595.0,286047000.5,N
1557350595.9,286047000.5,N
1557350615.7,286046998.9,N
1557350635.6,286047000.7,N
1557350655.4,286047000.9,N
1557350675.3,286047001.8,N
1557350695.1,286047000.4,N
1557350715.8,286046999.5,N
1557350735.7,286046997.3,N
1557350755.5,286046997.8,N
1557350775.4,286046997.8,N
1557350795.2,286046998.0,N
1557350815.0,286046996.1,N
1557350815.9,286046996.1,N
1557350835.8,286046997.4,N
1557350855.6,286046999.5,N
1557350875.4,286047000.7,N
1557350895.3,286047001.1,N
1557350915.1,286046999.0,N
1557350965.9,286046999.2,E
1557350975.8,286047000.3,N
1557350995.6,286046999.7,P
1557351015.5,286046999.8,N
1557351035.3,286047002.1,Y
1557351055.2,286047001.9,P
1557351075.9,286047003.0,P
1557351095.7,286047000.2,N
1557351115.6,286047000.7,N
1557351135.4,286046999.9,N
1557351155.2,286047002.7,N
1557351175.1,286047000.2,N
1557351176.0,286047000.2,N
1557351195.8,286047000.6,N
1557351215.7,286046998.7,N
1557351235.5,286046998.3,N
1557351255.3,286046998.2,N
1557351275.2,286046999.3,N
1557351295.0,286047002.3,N
1557351295.9,286047002.3,N
1557351315.8,286047002.7,N
1557351335.6,286047004.2,N
1557351355.4,286047002.2,N
1557351375.3,286047002.7,N
1557351395.1,286047002.6,N
1557351415.8,286047004.2,N
1557351435.7,286046999.8,N
1557351455.5,286047002.8,N
1557351475.3,286047002.4,N
1557351495.2,286047001.1,N
1557351515.0,286047000.5,N
1557351515.9,286047000.5,N
1557351535.8,286046998.9,N
1557351555.6,286046998.9,N
1557351575.4,286046998.3,N
1557351595.3,286046998.1,N
1557351615.1,286047001.8,N
1557351635.8,286047002.2,N
1557351655.7,286047000.3,N
1557351675.5,286047000.3,N
1557351695.4,286047002.6,N
1557351715.2,286047000.3,N
1557351735.0,286047001.9,N
1557351735.9,286047001.9,N
1557351755.8,286046998.6,N
1557351775.6,286046999.8,N
1557351795.5,286047002.0,N
1557351815.3,286047000.0,N
1557351835.1,286047000.4,N
1557351855.9,286047000.4,N
1557351875.7,286047001.4,N
1557351895.5,286047002.0,N
1557351915.4,286047004.1,N
1557351935.2,286047005.5,Y
1557351955.1,286047003.7,P
1557351956.0,286047003.7,N
1557351975.8,286047001.4,N
1557351995.6,286047001.7,N
1557352015.5,286046999.7,N
1557352035.3,286047001.2,N
1557352055.1,286046998.4,N
1557352075.9,286046999.2,N
1557352095.7,286046998.5,N
1557352115.6,286047004.3,N
1557352135.4,286047001.5,N
1557352155.2,286047000.7,N
1557352175.1,286047000.0,N
1557352176.0,286047000.0,N
1557352195.8,286046999.7,N
1557352215.6,286047000.2,N
1557352235.5,286047000.3,N
1557352255.3,286047000.3,N
1557352275.2,286047004.4,N
1557352295.9,286047005.4,Y
1557352315.7,286047000.2,P
1557352335.6,286047001.2,N
1557352355.4,286046999.9,N
1557352375.3,286047000.6,N
1557352395.1,286046998.2,Y
1557352396.0,286046998.2,P
1557352415.8,286046998.7,N
1557352435.7,286047001.2,N
1557352455.5,286046999.4,N
1557352475.3,286046997.8,N
1557352495.2,286046998.4,N
1557352515.0,286046998.5,N
1557352515.9,286046998.5,N
1557352535.8,286047000.3,N
1557352555.6,286046998.7,N
1557352575.4,286047000.2,N
1557352595.3,286047000.8,N
1557352615.1,286046998.9,N
1557352635.9,286046996.5,Y
1557352655.7,286047000.1,P
1557352675.5,286047001.5,P
1557352695.4,286046999.8,N
1557352715.2,286046999.8,N
1557352735.0,286047000.8,N
1557352735.9,286047000.8,N
1557352755.8,286047001.0,N
1557352775.6,286047002.3,Y
1557352795.5,286047002.0,P
